Location: *
(40.7873°S, 98.7174°E)
Time: 08:34:54
(UTC+00:00)

DMSP B5D2-2 - Visible Passes

Search period start: 27 September 2022 00:00
Search period end: 07 October 2022 00:00
Orbit: 790 x 804 km, 98.3° (Epoch: 26 September)

Date Brightness Start Highest point End Pass type
(mag) Time Alt. Az. Time Alt. Az. Time Alt. Az.
27 Sep 7.2 12:02:32 10° NW 12:05:42 16° W 12:08:53 10° SW visible
27 Sep 6.8 22:35:09 10° SE 22:39:24 24° E 22:43:38 10° NNE visible
28 Sep 7.3 22:09:12 10° ESE 22:11:44 13° E 22:14:14 10° ENE visible
30 Sep 7.7 12:22:42 10° W 12:23:26 10° W 12:24:12 10° W visible
01 Oct 7.1 11:51:59 10° NW 11:55:42 20° W 11:59:30 10° SW visible
01 Oct 7.0 22:25:36 10° SE 22:29:26 20° E 22:33:14 10° NE visible
02 Oct 7.7 22:00:36 10° ESE 22:01:43 11° E 22:02:49 10° E visible
04 Oct 7.4 12:11:02 10° WNW 12:13:25 13° W 12:15:50 10° WSW visible
05 Oct 7.1 22:16:10 10° SE 22:19:26 16° E 22:22:42 10° NE visible
